Flag for Canada Weather past 2 weeks in Richmond, British Columbia, Canada

Now
63 °F

Mostly cloudy.


Feels Like: 63 °F
Forecast: 60 / 65 °F
Wind: 9 mph from East

Location: Vancouver International Airport

Current Time: Aug 29, 2015 at 2:39:16 AM

Latest Report: Aug 29, 2015 at 2:00 AM


Visibility: 15 mi

Pressure: 29.62 "Hg

Humidity: 88%

Dew point: 59 °F

Location of RichmondLocation

Historic Weather in Richmond — Graph

°F

Richmond temperature yesterday

Maximum temperature yesterday: 70 °F (at 12:00 AM)
Minimum temperature yesterday: 59 °F (at 7:56 AM)
Average temperature yesterday: 65 °F

Past Weeks' High & Low Weather Summary

 TemperatureHumidityPressure
High75 °F (Aug 19, 5:00 PM)100% (Aug 28, 7:56 AM)30.27 "Hg (Aug 28, 7:56 AM)
Low54 °F (Aug 23, 4:00 AM)41% (Aug 24, 5:00 PM)29.70 "Hg (Aug 29, 12:00 AM)
Average65 °F73%30.00 "Hg
* Reported Midnight between Aug 13 and Aug 14 — Midnight between Aug 28 and Aug 29, Richmond, Weather by CustomWeather, © 2015

Note: Actual official high and low records may vary slightly from our data, if they occured in-between our weather recording intervals... More about our weather records

Advertising

Richmond weather history for previous 24 hours

 ConditionsComfort  
Time TempWeatherWind HumidityBarometerVisibility
12:00 AM
Sat, Aug 29
64 °FMostly cloudy.13 mph78%29.70 "Hg15 mi
11:55 PM
Fri, Aug 28
64 °FMostly cloudy.12 mph78%29.71 "Hg15 mi
11:00 PM64 °FMostly cloudy.8 mph78%29.76 "Hg20 mi
10:00 PM66 °FMostly cloudy.12 mph73%29.77 "Hg20 mi
9:00 PM66 °FMore clouds than sun.8 mph73%29.80 "Hg20 mi
8:00 PM68 °FMostly cloudy.8 mph69%29.81 "Hg20 mi
7:00 PM68 °FMostly cloudy.8 mph69%29.83 "Hg20 mi
6:00 PM70 °FBroken clouds.8 mph60%29.85 "Hg20 mi
5:00 PM70 °FBroken clouds.8 mph60%29.87 "Hg20 mi
4:00 PM70 °FPartly sunny.6 mph64%29.89 "Hg15 mi
3:00 PM70 °FCloudy.7 mph69%29.91 "Hg15 mi
2:00 PM68 °FMostly cloudy.7 mph78%29.92 "Hg15 mi
1:00 PM66 °FPartly sunny.7 mph83%29.93 "Hg15 mi
12:00 PM64 °FMostly cloudy.10 mph83%29.94 "Hg12 mi
11:00 AM63 °FMostly cloudy.8 mph83%29.95 "Hg10 mi
10:00 AM63 °FBroken clouds.9 mph88%29.94 "Hg8 mi
9:00 AM59 °FLight rain. Fog.10 mph100%29.94 "Hg4 mi
8:00 AM59 °FLight rain. Fog.8 mph94%29.94 "Hg3 mi
7:56 AM59 °FLight rain. Fog.8 mph100%29.94 "Hg4 mi
7:00 AM61 °FLight rain. Fog.10 mph94%29.93 "Hg5 mi
6:00 AM61 °FLight rain. Mostly cloudy.9 mph94%29.93 "Hg12 mi
5:00 AM63 °FLight rain. Overcast.8 mph83%29.93 "Hg12 mi
4:00 AM64 °FLight rain. Mostly cloudy.12 mph73%29.92 "Hg12 mi
3:00 AM64 °FLight rain. Low clouds.6 mph73%29.93 "Hg15 mi
2:00 AM64 °FLow clouds.8 mph83%29.95 "Hg15 mi
Weather by CustomWeather, © 2015

See weather overviewHow to use our weather pages